Location: Ottawa
(45.4170°N, 75.7000°W)
Time: 17:04:30
(UTC-04:00)

Daily predictions for brighter satellites

Satellite Brightness Start Highest point End
(mag) Time Altitude Azimuth Time Altitude Azimuth Time Altitude Azimuth
Cosmos 1461 3.8 20:22:00 10° NNW 20:25:46 33° NE 20:29:25 10° ESE
Cosmos 1975 4.4 20:25:38 10° SE 20:28:20 17° E 20:31:04 10° NE
Cosmos 2219 4.0 20:28:45 10° NW 20:34:13 54° WSW 20:39:39 10° S
Cosmos 1777 Rocket 4.0 20:29:35 10° NNW 20:34:53 84° ENE 20:40:09 10° SSE
Lacrosse 5 rocket 2.1 20:34:50 10° NW 20:38:20 34° NNE 20:41:40 10° E
Cosmos 1544 Rocket 3.5 20:35:21 10° S 20:39:40 64° E 20:44:03 10° NNE
Cosmos 1315 Rocket 3.4 20:37:05 10° SSW 20:41:02 63° WNW 20:45:04 10° N
Meteor 2-4 Rocket 4.1 20:38:00 10° NNW 20:43:48 74° W 20:49:41 10° S
Cosmos 2208 Rocket 4.3 20:38:59 10° S 20:44:00 45° ESE 20:49:07 10° NNE
USA 215 4.1 20:40:01 10° E 20:46:08 43° NNE 20:52:13 10° NW
Cosmos 1656 Rocket 4.4 20:42:38 10° SW 20:48:09 60° WNW 20:53:39 10° NNE
Cosmos 1821 Rocket 4.0 20:43:25 10° S 20:49:33 90° ESE 20:55:41 10° N
ATLAS CENTAUR R/B 2.9 20:45:26 10° WSW 20:50:19 49° NW 20:55:05 10° NNE
Cosmos 1605 Rocket 4.1 20:46:10 10° S 20:52:21 57° E 20:58:30 10° NNE
Cosmos 2278 4.0 20:49:02 10° S 20:54:25 46° ESE 20:59:50 10° NE
ALOS 3.2 20:51:30 10° S 20:56:03 51° W 21:00:38 10° NNW
Cosmos 1939 Rocket 3.3 20:53:26 11° SE 20:57:09 45° ENE 21:01:09 10° N
Cosmos 1697 Rocket 4.0 20:54:02 11° SE 20:57:39 19° E 21:01:26 10° ENE
NOSS 3-4 (A) 3.9 20:52:00 10° NW 20:59:00 85° SW 21:06:10 11° SSE
NOSS 3-4 (C) 3.9 20:52:06 10° NW 20:59:06 86° SW 21:06:15 11° SSE
Lacrosse 5 3.0 20:54:57 10° NW 20:59:34 33° NNE 21:03:50 12° E
YAOGAN 6 4.3 21:00:20 15° E 21:01:50 19° ENE 21:04:32 10° NNE
H-2A R/B 3.9 20:58:30 10° S 21:02:12 45° W 21:06:00 10° NNW
H-2A R/B 4.1 21:01:29 10° ENE 21:02:51 11° NE 21:04:11 10° NE
Cosmos 1570 Rocket 4.0 20:58:35 10° S 21:03:51 72° ESE 21:09:08 10° NNE
Cosmos 2369 3.8 21:01:25 10° S 21:06:52 52° ESE 21:12:23 10° NE
SPOT 5 3.6 21:03:42 16° SE 21:07:17 38° ENE 21:11:47 10° N
YAOGAN 11 4.1 21:03:09 10° SSE 21:07:41 85° ENE 21:12:12 10° NNW
Envisat 3.0 21:08:02 13° SSE 21:12:35 64° ENE 21:17:37 10° N
DELTA 2 R/B (1) 4.0 21:09:42 10° WSW 21:15:01 47° S 21:18:27 21° ESE
Cosmos 1937 Rocket 4.4 21:10:40 10° N 21:15:25 33° ENE 21:18:15 20° ESE
Cosmos 2150 Rocket 4.5 21:11:52 10° N 21:16:47 43° ENE 21:19:45 22° ESE
Cosmos 2123 Rocket 4.3 21:11:49 10° NNW 21:17:58 70° W 21:24:05 10° S
Cosmos 1980 Rocket 3.6 21:19:02 17° E 21:19:02 17° E 21:22:22 10° ENE
RESURS DK-1 3.7 21:19:19 10° N 21:22:51 26° NE 21:24:26 20° E
Cosmos 1346 Rocket 3.9 21:19:16 10° NNW 21:23:02 44° W 21:26:48 10° SSW
ARGOS 4.0 21:26:41 23° ESE 21:29:11 34° ENE 21:34:01 10° N
deb Chang Zheng 4 3.7 21:28:01 10° NNE 21:32:26 56° ESE 21:35:52 16° S
CZ-4 DEB 4.1 21:30:12 11° SSW 21:32:57 37° W 21:35:56 10° NNW
H-2A R/B 1.8 21:32:15 26° SSE 21:34:32 78° ENE 21:38:40 10° N
NOSS 7 (E) 4.4 21:31:55 10° SW 21:35:22 83° NW 21:38:49 10° NE
Iridium 4 Rocket 3.6 21:32:05 10° N 21:37:26 75° W 21:42:11 10° S
Cosmos 1626 Rocket 3.9 21:33:12 10° NNW 21:37:36 66° W 21:41:12 15° S
ASTEX 1 3.9 21:33:35 10° NNE 21:38:21 41° E 21:40:10 30° SE
Cosmos 1459 Rocket 4.0 21:36:29 18° SSE 21:40:56 55° E 21:46:52 10° NNE
Cosmos 2227 Rocket 2.8 21:36:37 10° NW 21:42:08 54° WSW 21:46:31 16° S
SL-24 R/B - RUBIN 2 4.5 21:39:12 10° S 21:44:50 51° ESE 21:51:06 10° NE
CZ-4B R/B 4.2 21:40:56 10° NE 21:45:03 29° E 21:45:03 29° E
Cosmos 1602 Rocket 4.2 21:40:41 10° NNW 21:45:05 55° W 21:48:43 14° S
Tiangong 1 1.4 21:42:25 10° WSW 21:45:06 46° SSW 21:45:06 46° SSW
NOSS 7 (H) 4.1 21:43:15 10° SSW 21:46:27 74° SE 21:49:58 10° NE
Cosmos 2263 Rocket 4.3 21:43:49 10° N 21:46:40 14° NE 21:49:27 10° ENE
Cosmos 1758 Rocket 4.3 21:42:46 10° N 21:46:44 33° ENE 21:47:17 32° E
Cosmos 1898 Rocket 3.5 21:42:29 10° NNW 21:47:51 81° ENE 21:50:22 32° SSE
PSLV R/B 3.2 21:49:47 59° ENE 21:49:47 59° ENE 21:52:40 10° N
Nimbus 7 Rocket 4.4 21:43:43 10° NNE 21:49:48 76° ESE 21:55:52 10° S
CZ-4 SHROUD 3.5 21:50:48 51° ENE 21:50:48 51° ENE 21:53:36 10° N
Cosmos 1500 3.1 21:50:01 28° S 21:51:56 86° WNW 21:55:44 10° N
ERS-1 Rocket 4.0 21:47:28 10° S 21:52:15 43° W 21:57:03 10° NNW
MetOp-B 4.1 21:49:40 29° SSE 21:52:33 82° ENE 21:57:55 10° NNW
Cosmos 2082 4.5 21:48:33 10° NW 21:53:54 46° WSW 21:57:54 17° S
Terra 3.1 21:56:54 24° ENE 21:57:31 25° ENE 22:01:22 10° N
Cosmos 2297 Rocket 2.7 21:52:41 10° NNW 21:58:12 56° WSW 22:01:34 24° S
Cosmos 1802 Rocket 4.0 21:54:07 23° SSE 21:58:14 65° E 22:04:37 10° NNE
OTV 4 3.2 21:59:09 10° SW 21:59:29 12° SW 21:59:29 12° SW
Cosmos 1656 3.5 21:56:59 10° SSW 22:02:37 81° ESE 22:08:12 10° NNE
SL-08 RB Rocket 4.0 22:03:00 45° ESE 22:03:53 53° ENE 22:08:26 10° N
Cosmos 1975 4.2 22:00:40 10° SSW 22:04:32 40° WNW 22:08:27 10° N
Cosmos 1763 Rocket 4.2 22:05:17 33° E 22:05:17 33° E 22:09:13 10° NE
Cosmos 1461 4.4 22:01:22 10° NW 22:04:52 28° WSW 22:06:17 22° SSW
Cosmos 2058 Rocket 3.9 22:06:48 35° ENE 22:06:48 35° ENE 22:10:27 10° NNE
Cosmos 1340 2.6 22:04:16 10° N 22:08:04 69° ENE 22:08:04 69° ENE
Cosmos 468 Rocket 3.8 22:09:54 21° SSW 22:13:26 85° ESE 22:18:35 10° NNE
Lacrosse 5 rocket 2.1 22:14:08 10° WNW 22:17:23 35° SW 22:17:23 35° SW
Cosmos 1814 Rocket 3.9 22:16:31 29° SSW 22:19:18 81° ESE 22:24:39 10° NNE
Cosmos 1743 2.8 22:19:32 65° SW 22:19:59 75° W 22:23:56 10° N
Cosmos 2016 Rocket 3.8 22:19:13 34° S 22:22:05 81° E 22:28:17 10° N
Cosmos 1606 Rocket 3.4 22:21:42 73° SSE 22:22:05 82° E 22:26:31 10° N
Cosmos 841 Rocket 3.9 22:24:03 43° E 22:24:03 43° E 22:28:22 10° NNE
Cosmos 2084 3.5 22:20:20 10° NW 22:24:20 59° SW 22:24:26 59° SW
USA 215 3.2 22:26:31 44° SE 22:28:49 85° SW 22:35:24 10° NW
Cosmos 1842 3.6 22:28:38 10° N 22:31:58 61° N 22:31:58 61° N
CARTOSAT-1 4.1 22:33:30 47° NE 22:33:30 47° NE 22:37:13 10° N
BREEZE-M DEB (TANK) 4.4 22:28:59 10° WNW 22:33:21 80° SSW 22:38:25 35° SE
YAOGAN 6 4.0 22:34:50 31° WSW 22:35:13 31° W 22:38:33 10° NNW
Cosmos 2173 Rocket 4.4 22:30:10 15° SSW 22:35:25 62° W 22:41:44 10° N
Milstar 3 Cent rocket 4.4 22:21:58 10° WSW 22:35:42 31° SSW 22:38:08 29° S
Cosmos 2061 Rocket 4.5 22:32:02 16° SSW 22:37:12 60° WNW 22:43:25 10° N
GEOS 3 Rocket 3.4 22:34:05 10° NE 22:39:15 84° SE 22:41:24 36° SSW
Cosmos 1697 Rocket 2.9 22:35:31 11° SW 22:41:00 70° WNW 22:46:40 10° NNE
H-2A R/B 1.8 22:41:12 72° E 22:41:26 74° ENE 22:46:23 10° N
Meteor 1-15 Rocket 4.2 22:41:03 62° SE 22:41:41 66° E 22:47:32 10° NNE
SL-16 R/B 3.7 22:44:19 22° ENE 22:44:19 22° ENE 22:46:47 10° NE
Lacrosse 5 1.8 22:37:51 10° NW 22:42:55 72° SW 22:43:01 72° SSW
Tsikada Rocket 3.9 22:36:42 10° N 22:43:11 85° E 22:44:43 56° SSE
Cosmos 2098 Rocket 4.1 22:42:50 40° S 22:45:41 90° ENE 22:51:51 10° N
Cosmos 1726 Rocket 3.8 22:47:06 63° W 22:47:13 64° WNW 22:51:35 10° N
Cosmos 1864 Rocket 4.3 22:47:51 57° S 22:49:12 86° E 22:55:22 10° N
Cosmos 967 Rocket 4.4 22:47:55 10° NW 22:54:18 78° WSW 22:55:14 65° S
RESURS DK-1 3.8 22:57:12 10° NW 23:00:21 32° W 23:00:21 32° W
Cosmos 1980 Rocket 2.2 23:00:44 52° SW 23:02:09 77° WNW 23:07:53 10° NNE
Cosmos 2360 Rocket 4.5 23:06:24 11° ENE 23:06:24 11° ENE 23:06:46 10° ENE
ARGOS 4.2 23:08:12 32° WSW 23:09:23 36° W 23:14:20 10° NNW
CZ-4C R/B 4.3 23:10:16 52° WNW 23:10:16 52° WNW 23:14:02 10° NNW
GP-B 4.1 23:06:52 10° N 23:09:54 42° NNE 23:09:54 42° NNE
Cosmos 1725 Rocket 4.4 23:17:04 43° SW 23:18:50 57° WNW 23:25:00 10° N
Cosmos 2346 Rocket 4.3 23:20:01 10° N 23:26:17 85° W 23:26:25 84° SW
Cosmos 2263 Rocket 2.5 23:26:12 10° NNW 23:31:08 60° NNE 23:31:08 60° NNE
Cosmos 2322 Rocket 2.7 23:33:40 50° NE 23:33:40 50° NE 23:37:49 10° NNE
Terra 2.9 23:35:48 39° WNW 23:35:48 39° WNW 23:39:34 10° NNW
Cosmos 1125 Rocket 4.2 23:31:01 10° NNW 23:35:17 48° WNW 23:35:17 48° WNW
Cosmos 2233 Rocket 4.4 23:48:31 52° W 23:49:07 54° WNW 23:55:14 10° N
